| time (UTC) | temp F | wind direction | speed MPH | gust MPH | rain 1hr in | rain 24hr in | rain mn in | humidity % | barometer mb |
| 20260509061521 | 43 | 0 | 1.0 | 1.0 | 0.07 | 0.03 | 0.03 | 99 | 1011.8 |
| 20260509061018 | 43 | 0 | 0.0 | 0.0 | 0.05 | 0.02 | 0.02 | 99 | 1011.7 |
| 20260509060515 | 42 | 356 | 0.0 | 0.0 | 0.05 | 0.02 | 0.02 | 99 | 1011.7 |
| 20260509060011 | 42 | 354 | 0.0 | 0.0 | 0.07 | 0.01 | 0.01 | 99 | 1012.0 |
| 20260509055506 | 42 | 354 | 0.0 | 0.0 | 0.07 | 0.01 | 0.01 | 99 | 1011.8 |
| 20260509055003 | 42 | 355 | 0.0 | 0.0 | 0.00 | 0.00 | 0.00 | 99 | 1012.0 |
| 20260509054459 | 42 | 356 | 0.0 | 0.0 | 0.00 | 0.00 | 0.00 | 99 | 1011.7 |
| 20260509053958 | 42 | 356 | 0.0 | 0.0 | 0.00 | 0.00 | 0.00 | 99 | 1012.0 |
| 20260509053455 | 42 | 36 | 1.0 | 1.0 | 0.00 | 0.00 | 0.00 | 99 | 1012.0 |
| 20260509052953 | 42 | 344 | 0.0 | 1.0 | 0.00 | 0.00 | 0.00 | 99 | 1012.0 |
| 20260509052450 | 42 | 351 | 0.0 | 0.0 | 0.00 | 0.00 | 0.00 | 99 | 1012.0 |
| 20260509051948 | 42 | 359 | 0.0 | 0.0 | 0.00 | 0.00 | 0.00 | 99 | 1011.8 |
| 20260509051446 | 42 | 0 | 0.0 | 0.0 | 0.00 | 0.00 | 0.00 | 99 | 1012.0 |
| 20260509050943 | 42 | 359 | 0.0 | 0.0 | 0.00 | 0.00 | 0.00 | 99 | 1012.0 |
| 20260509050439 | 42 | 359 | 0.0 | 0.0 | 0.00 | 0.00 | 0.00 | 99 | 1011.9 |
| 20260509045936 | 42 | 0 | 0.0 | 0.0 | 0.00 | 0.00 | 0.00 | 99 | 1012.0 |
| 20260509045433 | 42 | 0 | 0.0 | 0.0 | 0.00 | 0.00 | 0.00 | 99 | 1012.1 |
| 20260509044930 | 42 | 0 | 0.0 | 0.0 | 0.00 | 0.00 | 0.00 | 99 | 1012.2 |
| 20260509044428 | 42 | 0 | 0.0 | 0.0 | 0.00 | 0.00 | 0.00 | 99 | 1012.1 |
| 20260509043925 | 42 | 0 | 0.0 | 0.0 | 0.00 | 0.00 | 0.00 | 99 | 1012.4 |
| 20260509043420 | 42 | 0 | 0.0 | 0.0 | 0.00 | 0.00 | 0.00 | 99 | 1012.4 |
| 20260509042916 | 42 | 0 | 0.0 | 0.0 | 0.00 | 0.00 | 0.00 | 99 | 1012.3 |
| 20260509042413 | 42 | 8 | 0.0 | 0.0 | 0.00 | 0.00 | 0.00 | 99 | 1012.3 |
| 20260509041909 | 42 | 9 | 0.0 | 0.0 | 0.00 | 0.00 | 0.00 | 99 | 1012.3 |
| 20260509041406 | 42 | 356 | 0.0 | 0.0 | 0.00 | 0.00 | 0.00 | 99 | 1012.3 |
| 20260509040904 | 42 | 356 | 0.0 | 0.0 | 0.00 | 0.00 | 0.00 | 99 | 1012.4 |
| 20260509040402 | 42 | 356 | 0.0 | 0.0 | 0.00 | 0.00 | 0.00 | 99 | 1012.3 |
| 20260509035859 | 42 | 355 | 0.0 | 0.0 | 0.00 | 0.09 | 0.09 | 99 | 1012.4 |
| 20260509035356 | 42 | 357 | 0.0 | 0.0 | 0.00 | 0.09 | 0.09 | 99 | 1012.2 |
| 20260509034852 | 42 | 8 | 0.0 | 0.0 | 0.00 | 0.09 | 0.09 | 99 | 1012.4 |
| 20260509034350 | 42 | 11 | 0.0 | 0.0 | 0.00 | 0.09 | 0.09 | 99 | 1012.4 |
| 20260509033847 | 42 | 354 | 0.0 | 0.0 | 0.00 | 0.09 | 0.09 | 99 | 1012.3 |
| 20260509033344 | 42 | 354 | 0.0 | 0.0 | 0.00 | 0.09 | 0.09 | 99 | 1012.3 |
| 20260509032840 | 42 | 355 | 0.0 | 0.0 | 0.00 | 0.09 | 0.09 | 99 | 1012.2 |
| 20260509032338 | 42 | 356 | 0.0 | 0.0 | 0.00 | 0.09 | 0.09 | 99 | 1012.3 |
| 20260509031836 | 42 | 356 | 0.0 | 0.0 | 0.00 | 0.09 | 0.09 | 99 | 1012.2 |
| 20260509031332 | 41 | 355 | 0.0 | 0.0 | 0.00 | 0.09 | 0.09 | 99 | 1012.4 |
| 20260509030830 | 41 | 2 | 0.0 | 0.0 | 0.00 | 0.09 | 0.09 | 99 | 1012.3 |
| 20260509030328 | 41 | 2 | 0.0 | 0.0 | 0.00 | 0.09 | 0.09 | 99 | 1012.4 |
| 20260509025825 | 41 | 3 | 0.0 | 0.0 | 0.00 | 0.09 | 0.09 | 99 | 1011.9 |
| 20260509025320 | 41 | 356 | 0.0 | 1.0 | 0.00 | 0.09 | 0.09 | 99 | 1012.4 |
| 20260509024815 | 41 | 353 | 0.0 | 1.0 | 0.00 | 0.09 | 0.09 | 99 | 1012.1 |
| 20260509024312 | 41 | 351 | 1.0 | 1.0 | 0.00 | 0.09 | 0.09 | 98 | 1012.2 |
| 20260509023809 | 42 | 8 | 0.0 | 0.0 | 0.00 | 0.09 | 0.09 | 98 | 1012.0 |
| 20260509023306 | 42 | 8 | 0.0 | 0.0 | 0.00 | 0.09 | 0.09 | 98 | 1012.1 |
| 20260509022802 | 43 | 8 | 0.0 | 0.0 | 0.00 | 0.09 | 0.09 | 97 | 1012.2 |
| 20260509022300 | 43 | 8 | 0.0 | 0.0 | 0.00 | 0.09 | 0.09 | 97 | 1012.3 |
| 20260509021757 | 44 | 2 | 0.0 | 0.0 | 0.00 | 0.09 | 0.09 | 96 | 1012.4 |
| 20260509021254 | 44 | 3 | 0.0 | 0.0 | 0.00 | 0.09 | 0.09 | 95 | 1012.2 |
| 20260509020752 | 45 | 359 | 0.0 | 0.0 | 0.00 | 0.09 | 0.09 | 94 | 1012.3 |
| 20260509020249 | 45 | 359 | 0.0 | 1.0 | 0.00 | 0.09 | 0.09 | 93 | 1012.2 |
| 20260509015747 | 45 | 359 | 0.0 | 0.0 | 0.00 | 0.09 | 0.09 | 93 | 1012.0 |
| 20260509015245 | 45 | 359 | 0.0 | 0.0 | 0.00 | 0.09 | 0.09 | 93 | 1012.2 |
| 20260509014741 | 45 | 0 | 1.0 | 1.0 | 0.00 | 0.09 | 0.09 | 93 | 1012.2 |
| 20260509014238 | 45 | 359 | 1.0 | 1.0 | 0.00 | 0.09 | 0.09 | 93 | 1012.0 |
| 20260509013735 | 45 | 0 | 0.0 | 0.0 | 0.00 | 0.09 | 0.09 | 93 | 1012.1 |
| 20260509013230 | 45 | 6 | 1.0 | 1.0 | 0.00 | 0.09 | 0.09 | 94 | 1012.4 |
| 20260509012727 | 45 | 352 | 0.0 | 0.0 | 0.00 | 0.09 | 0.09 | 94 | 1012.2 |
| 20260509012224 | 45 | 351 | 0.0 | 0.0 | 0.00 | 0.09 | 0.09 | 93 | 1012.1 |
| 20260509011722 | 45 | 351 | 0.0 | 0.0 | 0.00 | 0.09 | 0.09 | 93 | 1012.1 |
| 20260509011219 | 45 | 3 | 0.0 | 0.0 | 0.00 | 0.09 | 0.09 | 92 | 1012.0 |
| 20260509010717 | 45 | 3 | 0.0 | 0.0 | 0.00 | 0.09 | 0.09 | 91 | 1011.9 |
| 20260509010213 | 45 | 3 | 0.0 | 0.0 | 0.00 | 0.09 | 0.09 | 90 | 1011.9 |
| 20260509005711 | 46 | 3 | 0.0 | 0.0 | 0.00 | 0.09 | 0.09 | 90 | 1011.4 |
| 20260509005208 | 46 | 8 | 0.0 | 0.0 | 0.00 | 0.09 | 0.09 | 89 | 1011.4 |
| 20260509004702 | 47 | 357 | 0.0 | 0.0 | 0.00 | 0.09 | 0.09 | 88 | 1011.5 |
| 20260509004200 | 47 | 354 | 0.0 | 0.0 | 0.00 | 0.09 | 0.09 | 86 | 1011.4 |
| 20260509003658 | 48 | 304 | 1.0 | 1.0 | 0.00 | 0.09 | 0.09 | 85 | 1011.5 |
| 20260509003155 | 48 | 337 | 1.0 | 1.0 | 0.00 | 0.09 | 0.09 | 85 | 1011.5 |
| 20260509002652 | 48 | 337 | 0.0 | 1.0 | 0.00 | 0.09 | 0.09 | 84 | 1011.5 |
| 20260509002150 | 48 | 258 | 2.0 | 2.0 | 0.00 | 0.09 | 0.09 | 83 | 1011.6 |
| 20260509001647 | 48 | 348 | 0.0 | 0.0 | 0.00 | 0.09 | 0.09 | 82 | 1011.4 |
| 20260509001142 | 48 | 340 | 0.0 | 1.0 | 0.00 | 0.09 | 0.09 | 81 | 1011.2 |
| 20260509000641 | 48 | 343 | 0.0 | 1.0 | 0.00 | 0.09 | 0.09 | 80 | 1011.1 |
| 20260509000138 | 48 | 342 | 1.0 | 1.0 | 0.00 | 0.09 | 0.09 | 80 | 1011.2 |
| 20260508235635 | 49 | 337 | 1.0 | 1.0 | 0.00 | 0.09 | 0.09 | 80 | 1011.0 |
| 20260508235131 | 49 | 342 | 0.0 | 1.0 | 0.00 | 0.09 | 0.09 | 78 | 1011.2 |
| 20260508234629 | 49 | 326 | 1.0 | 1.0 | 0.00 | 0.09 | 0.09 | 77 | 1010.9 |
| 20260508234125 | 50 | 344 | 1.0 | 1.0 | 0.00 | 0.09 | 0.09 | 74 | 1010.7 |
| 20260508233625 | 50 | 356 | 0.0 | 0.0 | 0.00 | 0.09 | 0.09 | 73 | 1010.6 |
| 20260508233122 | 51 | 350 | 0.0 | 0.0 | 0.00 | 0.09 | 0.09 | 72 | 1010.8 |
| 20260508232619 | 51 | 239 | 1.0 | 1.0 | 0.00 | 0.09 | 0.09 | 68 | 1010.8 |
| 20260508232115 | 52 | 303 | 1.0 | 2.0 | 0.00 | 0.09 | 0.09 | 64 | 1010.7 |
| 20260508231613 | 52 | 293 | 1.0 | 1.0 | 0.00 | 0.09 | 0.09 | 64 | 1010.8 |
| 20260508231110 | 52 | 19 | 0.0 | 1.0 | 0.00 | 0.09 | 0.09 | 63 | 1010.6 |
| 20260508230606 | 53 | 315 | 1.0 | 2.0 | 0.00 | 0.09 | 0.09 | 60 | 1010.8 |
| 20260508225601 | 52 | 289 | 2.0 | 2.0 | 0.00 | 0.09 | 0.09 | 60 | 1010.8 |
| 20260508225057 | 53 | 317 | 1.0 | 1.0 | 0.00 | 0.09 | 0.09 | 60 | 1010.8 |
| 20260508224555 | 53 | 263 | 1.0 | 2.0 | 0.00 | 0.09 | 0.09 | 58 | 1010.6 |
| 20260508224052 | 53 | 217 | 3.0 | 3.0 | 0.00 | 0.09 | 0.09 | 58 | 1010.8 |
| 20260508223550 | 53 | 49 | 1.0 | 1.0 | 0.00 | 0.09 | 0.09 | 60 | 1010.8 |
| 20260508223047 | 53 | 279 | 2.0 | 2.0 | 0.00 | 0.09 | 0.09 | 59 | 1010.7 |
| 20260508222544 | 53 | 204 | 5.0 | 7.0 | 0.00 | 0.09 | 0.09 | 58 | 1010.6 |
| 20260508222041 | 54 | 32 | 1.0 | 1.0 | 0.00 | 0.09 | 0.09 | 59 | 1010.4 |
| 20260508221537 | 53 | 95 | 1.0 | 2.0 | 0.00 | 0.09 | 0.09 | 59 | 1010.3 |
| 20260508221033 | 53 | 355 | 0.0 | 1.0 | 0.00 | 0.09 | 0.09 | 59 | 1010.7 |
| 20260508220530 | 52 | 18 | 0.0 | 1.0 | 0.00 | 0.09 | 0.09 | 61 | 1010.4 |
| 20260508220026 | 52 | 352 | 1.0 | 1.0 | 0.00 | 0.09 | 0.09 | 59 | 1010.6 |
| 20260508215524 | 52 | 174 | 2.0 | 2.0 | 0.00 | 0.09 | 0.09 | 61 | 1010.7 |
| 20260508215020 | 53 | 295 | 2.0 | 2.0 | 0.00 | 0.09 | 0.09 | 58 | 1010.6 |
| 20260508214518 | 53 | 265 | 5.0 | 5.0 | 0.00 | 0.09 | 0.09 | 58 | 1011.0 |
| 20260508214014 | 52 | 226 | 3.0 | 3.0 | 0.00 | 0.09 | 0.09 | 58 | 1010.9 |
| 20260508213512 | 52 | 278 | 3.0 | 3.0 | 0.00 | 0.09 | 0.09 | 58 | 1010.8 |
| 20260508213007 | 52 | 306 | 2.0 | 2.0 | 0.00 | 0.09 | 0.09 | 57 | 1010.7 |
| 20260508212504 | 53 | 269 | 4.0 | 5.0 | 0.00 | 0.09 | 0.09 | 58 | 1011.1 |
| 20260508212000 | 53 | 39 | 2.0 | 2.0 | 0.00 | 0.09 | 0.09 | 58 | 1010.7 |
| 20260508211455 | 52 | 274 | 2.0 | 2.0 | 0.00 | 0.09 | 0.09 | 59 | 1010.9 |
| 20260508210952 | 52 | 323 | 1.0 | 2.0 | 0.00 | 0.09 | 0.09 | 58 | 1010.6 |
| 20260508210449 | 52 | 268 | 3.0 | 3.0 | 0.00 | 0.09 | 0.09 | 59 | 1010.7 |
| 20260508205945 | 52 | 192 | 3.0 | 3.0 | 0.00 | 0.09 | 0.09 | 59 | 1010.9 |
| 20260508205443 | 53 | 206 | 4.0 | 6.0 | 0.00 | 0.09 | 0.09 | 58 | 1010.9 |
| 20260508204938 | 53 | 221 | 6.0 | 7.0 | 0.00 | 0.09 | 0.09 | 57 | 1011.0 |
| 20260508204436 | 52 | 258 | 3.0 | 3.0 | 0.00 | 0.09 | 0.09 | 58 | 1010.8 |
| 20260508203931 | 52 | 236 | 6.0 | 7.0 | 0.00 | 0.09 | 0.09 | 58 | 1010.8 |
| 20260508203428 | 53 | 254 | 3.0 | 3.0 | 0.00 | 0.09 | 0.09 | 59 | 1010.9 |
| 20260508202924 | 52 | 208 | 4.0 | 5.0 | 0.00 | 0.09 | 0.09 | 59 | 1010.9 |
| 20260508202421 | 52 | 246 | 6.0 | 8.0 | 0.00 | 0.09 | 0.09 | 59 | 1011.2 |
| 20260508201918 | 53 | 266 | 4.0 | 5.0 | 0.00 | 0.09 | 0.09 | 60 | 1011.4 |
| 20260508201414 | 53 | 289 | 7.0 | 9.0 | 0.00 | 0.09 | 0.09 | 58 | 1011.2 |
| 20260508200906 | 52 | 301 | 2.0 | 2.0 | 0.00 | 0.09 | 0.09 | 58 | 1011.1 |
| 20260508200403 | 51 | 293 | 4.0 | 5.0 | 0.00 | 0.09 | 0.09 | 60 | 1011.1 |
| 20260508195858 | 51 | 308 | 2.0 | 2.0 | 0.00 | 0.09 | 0.09 | 60 | 1011.4 |
| 20260508195355 | 51 | 313 | 4.0 | 5.0 | 0.00 | 0.09 | 0.09 | 61 | 1011.4 |
| 20260508194851 | 51 | 192 | 3.0 | 3.0 | 0.00 | 0.09 | 0.09 | 61 | 1011.2 |
| 20260508194348 | 51 | 288 | 3.0 | 3.0 | 0.00 | 0.09 | 0.09 | 60 | 1011.2 |
| 20260508193845 | 51 | 178 | 3.0 | 3.0 | 0.00 | 0.09 | 0.09 | 63 | 1011.4 |
| 20260508193342 | 51 | 258 | 3.0 | 5.0 | 0.00 | 0.09 | 0.09 | 62 | 1011.4 |
| 20260508192838 | 51 | 229 | 7.0 | 8.0 | 0.00 | 0.09 | 0.09 | 61 | 1011.2 |
| 20260508192335 | 52 | 291 | 3.0 | 3.0 | 0.00 | 0.09 | 0.09 | 64 | 1011.5 |
| 20260508191832 | 51 | 326 | 4.0 | 5.0 | 0.00 | 0.09 | 0.09 | 65 | 1011.4 |
| 20260508191330 | 52 | 295 | 2.0 | 3.0 | 0.00 | 0.09 | 0.09 | 60 | 1011.3 |
| 20260508190827 | 53 | 241 | 3.0 | 5.0 | 0.00 | 0.09 | 0.09 | 62 | 1011.2 |
| 20260508190323 | 51 | 287 | 2.0 | 2.0 | 0.00 | 0.09 | 0.09 | 63 | 1011.5 |
| 20260508185819 | 51 | 288 | 3.0 | 3.0 | 0.00 | 0.09 | 0.09 | 62 | 1011.6 |
| 20260508185317 | 50 | 311 | 2.0 | 2.0 | 0.00 | 0.09 | 0.09 | 65 | 1011.7 |
| 20260508184814 | 50 | 315 | 4.0 | 5.0 | 0.00 | 0.09 | 0.09 | 65 | 1011.9 |
| 20260508184311 | 50 | 249 | 3.0 | 3.0 | 0.00 | 0.09 | 0.09 | 66 | 1011.8 |
| 20260508183808 | 51 | 274 | 5.0 | 6.0 | 0.00 | 0.09 | 0.09 | 64 | 1011.8 |
| 20260508183305 | 50 | 247 | 5.0 | 6.0 | 0.00 | 0.09 | 0.09 | 65 | 1011.9 |
| 20260508182800 | 51 | 319 | 3.0 | 3.0 | 0.00 | 0.09 | 0.09 | 62 | 1011.8 |
| 20260508182257 | 50 | 327 | 4.0 | 6.0 | 0.00 | 0.09 | 0.09 | 64 | 1012.0 |
| 20260508181753 | 50 | 239 | 2.0 | 3.0 | 0.00 | 0.09 | 0.09 | 64 | 1011.7 |
| 20260508181250 | 50 | 297 | 5.0 | 6.0 | 0.00 | 0.09 | 0.09 | 64 | 1011.9 |
| 20260508180747 | 50 | 225 | 8.0 | 11.0 | 0.00 | 0.09 | 0.09 | 65 | 1011.7 |
| 20260508180244 | 50 | 241 | 4.0 | 5.0 | 0.00 | 0.09 | 0.09 | 69 | 1011.5 |
| 20260508175740 | 50 | 268 | 4.0 | 5.0 | 0.00 | 0.09 | 0.09 | 67 | 1011.6 |
| 20260508175237 | 51 | 256 | 5.0 | 7.0 | 0.00 | 0.09 | 0.09 | 66 | 1011.7 |
| 20260508174735 | 50 | 258 | 5.0 | 6.0 | 0.00 | 0.09 | 0.09 | 68 | 1011.7 |
| 20260508174232 | 50 | 289 | 6.0 | 8.0 | 0.00 | 0.09 | 0.09 | 69 | 1011.5 |
| 20260508173728 | 50 | 305 | 2.0 | 2.0 | 0.00 | 0.09 | 0.09 | 67 | 1011.5 |
| 20260508173224 | 51 | 273 | 3.0 | 3.0 | 0.00 | 0.09 | 0.09 | 64 | 1011.6 |
| 20260508172721 | 50 | 208 | 5.0 | 7.0 | 0.00 | 0.09 | 0.09 | 65 | 1011.8 |
| 20260508172218 | 50 | 201 | 3.0 | 3.0 | 0.00 | 0.09 | 0.09 | 63 | 1011.7 |
| 20260508171715 | 51 | 219 | 7.0 | 8.0 | 0.00 | 0.09 | 0.09 | 66 | 1011.4 |
| 20260508171211 | 49 | 330 | 6.0 | 6.0 | 0.00 | 0.09 | 0.09 | 70 | 1011.7 |
| 20260508170708 | 48 | 250 | 4.0 | 6.0 | 0.00 | 0.09 | 0.09 | 71 | 1011.6 |
| 20260508170206 | 49 | 296 | 4.0 | 6.0 | 0.00 | 0.09 | 0.09 | 69 | 1011.7 |
| 20260508165703 | 49 | 274 | 2.0 | 3.0 | 0.00 | 0.09 | 0.09 | 72 | 1011.8 |
| 20260508165200 | 49 | 229 | 6.0 | 7.0 | 0.00 | 0.09 | 0.09 | 71 | 1011.7 |
| 20260508164656 | 50 | 233 | 6.0 | 7.0 | 0.00 | 0.09 | 0.09 | 70 | 1011.7 |
| 20260508164153 | 49 | 269 | 3.0 | 5.0 | 0.00 | 0.09 | 0.09 | 72 | 1011.6 |
| 20260508163651 | 49 | 243 | 5.0 | 7.0 | 0.00 | 0.09 | 0.09 | 72 | 1011.5 |
| 20260508163148 | 48 | 280 | 5.0 | 7.0 | 0.00 | 0.09 | 0.09 | 73 | 1011.4 |
| 20260508162643 | 49 | 278 | 2.0 | 2.0 | 0.00 | 0.09 | 0.09 | 72 | 1011.2 |
| 20260508162141 | 48 | 218 | 6.0 | 7.0 | 0.00 | 0.09 | 0.09 | 75 | 1011.4 |
| 20260508161638 | 48 | 239 | 6.0 | 7.0 | 0.00 | 0.09 | 0.09 | 74 | 1011.6 |
| 20260508161135 | 48 | 216 | 5.0 | 7.0 | 0.00 | 0.09 | 0.09 | 73 | 1011.7 |
| 20260508160633 | 48 | 296 | 4.0 | 5.0 | 0.00 | 0.09 | 0.09 | 75 | 1011.6 |
| 20260508160131 | 47 | 204 | 3.0 | 3.0 | 0.00 | 0.09 | 0.09 | 75 | 1011.6 |
| 20260508155628 | 45 | 277 | 3.0 | 5.0 | 0.00 | 0.09 | 0.09 | 75 | 1011.8 |
| 20260508155124 | 46 | 253 | 3.0 | 6.0 | 0.00 | 0.09 | 0.09 | 75 | 1011.8 |
| 20260508154621 | 46 | 315 | 2.0 | 2.0 | 0.00 | 0.09 | 0.09 | 74 | 1012.1 |
| 20260508154118 | 45 | 213 | 3.0 | 3.0 | 0.00 | 0.09 | 0.09 | 77 | 1011.9 |
| 20260508153615 | 45 | 249 | 3.0 | 3.0 | 0.00 | 0.09 | 0.09 | 76 | 1012.2 |
| 20260508153111 | 45 | 291 | 3.0 | 3.0 | 0.00 | 0.09 | 0.09 | 77 | 1012.2 |
| 20260508152603 | 45 | 309 | 4.0 | 5.0 | 0.00 | 0.09 | 0.09 | 77 | 1011.8 |
| 20260508152058 | 46 | 195 | 4.0 | 6.0 | 0.00 | 0.09 | 0.09 | 75 | 1012.1 |
| 20260508151555 | 47 | 264 | 5.0 | 6.0 | 0.00 | 0.09 | 0.09 | 74 | 1011.9 |
| 20260508151052 | 47 | 228 | 5.0 | 7.0 | 0.00 | 0.09 | 0.09 | 73 | 1011.6 |
| 20260508150549 | 46 | 220 | 2.0 | 2.0 | 0.00 | 0.09 | 0.09 | 74 | 1011.9 |
| 20260508150045 | 45 | 242 | 4.0 | 5.0 | 0.00 | 0.09 | 0.09 | 77 | 1012.0 |
| 20260508145542 | 44 | 237 | 3.0 | 3.0 | 0.00 | 0.09 | 0.09 | 78 | 1012.0 |
| 20260508145038 | 44 | 210 | 5.0 | 6.0 | 0.00 | 0.09 | 0.09 | 78 | 1012.0 |
| 20260508144536 | 44 | 269 | 3.0 | 3.0 | 0.00 | 0.09 | 0.09 | 80 | 1012.0 |
| 20260508144033 | 44 | 182 | 2.0 | 2.0 | 0.00 | 0.09 | 0.09 | 81 | 1012.1 |
| 20260508143531 | 44 | 242 | 3.0 | 3.0 | 0.00 | 0.09 | 0.09 | 81 | 1011.9 |
| 20260508143027 | 45 | 251 | 7.0 | 9.0 | 0.00 | 0.09 | 0.09 | 84 | 1011.8 |
| 20260508142524 | 46 | 320 | 2.0 | 2.0 | 0.00 | 0.09 | 0.09 | 82 | 1011.9 |
| 20260508142021 | 45 | 274 | 3.0 | 3.0 | 0.00 | 0.09 | 0.09 | 79 | 1011.7 |
| 20260508141517 | 44 | 264 | 3.0 | 3.0 | 0.00 | 0.09 | 0.09 | 79 | 1011.7 |
| 20260508141015 | 44 | 256 | 4.0 | 5.0 | 0.00 | 0.09 | 0.09 | 80 | 1011.6 |
| 20260508140512 | 45 | 268 | 5.0 | 6.0 | 0.00 | 0.09 | 0.09 | 82 | 1011.7 |
| 20260508140008 | 46 | 255 | 3.0 | 6.0 | 0.00 | 0.09 | 0.09 | 81 | 1011.6 |
| 20260508135504 | 45 | 238 | 2.0 | 2.0 | 0.00 | 0.09 | 0.09 | 85 | 1011.8 |
| 20260508135000 | 45 | 254 | 3.0 | 3.0 | 0.00 | 0.09 | 0.09 | 84 | 1011.6 |
| 20260508134457 | 45 | 250 | 4.0 | 5.0 | 0.00 | 0.09 | 0.09 | 81 | 1011.6 |
| 20260508133954 | 46 | 258 | 1.0 | 2.0 | 0.00 | 0.09 | 0.09 | 80 | 1011.6 |
| 20260508133451 | 45 | 260 | 4.0 | 5.0 | 0.00 | 0.09 | 0.09 | 81 | 1011.6 |
| 20260508132948 | 45 | 94 | 1.0 | 1.0 | 0.00 | 0.09 | 0.09 | 85 | 1011.6 |
| 20260508132446 | 44 | 286 | 2.0 | 2.0 | 0.00 | 0.09 | 0.09 | 81 | 1011.7 |
| 20260508131942 | 45 | 270 | 4.0 | 5.0 | 0.00 | 0.09 | 0.09 | 80 | 1011.8 |
| 20260508131438 | 45 | 150 | 2.0 | 2.0 | 0.00 | 0.09 | 0.09 | 83 | 1011.8 |
| 20260508130935 | 44 | 312 | 1.0 | 1.0 | 0.00 | 0.09 | 0.09 | 83 | 1012.0 |
| 20260508130432 | 45 | 19 | 0.0 | 0.0 | 0.00 | 0.09 | 0.09 | 84 | 1011.9 |
| 20260508125927 | 44 | 66 | 1.0 | 1.0 | 0.00 | 0.09 | 0.09 | 87 | 1011.7 |
| 20260508125424 | 46 | 84 | 1.0 | 2.0 | 0.00 | 0.09 | 0.09 | 86 | 1012.0 |
| 20260508124922 | 45 | 345 | 0.0 | 1.0 | 0.00 | 0.09 | 0.09 | 86 | 1011.8 |
| 20260508124419 | 45 | 341 | 1.0 | 1.0 | 0.00 | 0.09 | 0.09 | 89 | 1011.7 |
| 20260508123917 | 42 | 10 | 0.0 | 1.0 | 0.00 | 0.09 | 0.09 | 94 | 1012.1 |
| 20260508123415 | 42 | 215 | 2.0 | 2.0 | 0.00 | 0.09 | 0.09 | 93 | 1011.9 |
| 20260508122911 | 42 | 303 | 1.0 | 1.0 | 0.00 | 0.09 | 0.09 | 93 | 1012.0 |
| 20260508122409 | 43 | 322 | 1.0 | 1.0 | 0.00 | 0.09 | 0.09 | 94 | 1011.9 |
| 20260508121906 | 42 | 320 | 2.0 | 2.0 | 0.00 | 0.09 | 0.09 | 95 | 1011.8 |
| 20260508121404 | 42 | 346 | 0.0 | 0.0 | 0.00 | 0.09 | 0.09 | 98 | 1011.8 |
| 20260508120901 | 42 | 78 | 2.0 | 2.0 | 0.00 | 0.09 | 0.09 | 99 | 1011.8 |
| 20260508120359 | 41 | 0 | 1.0 | 1.0 | 0.00 | 0.09 | 0.09 | 99 | 1011.9 |
| 20260508115856 | 41 | 22 | 0.0 | 1.0 | 0.00 | 0.09 | 0.09 | 99 | 1011.8 |
| 20260508115354 | 41 | 355 | 0.0 | 0.0 | 0.00 | 0.09 | 0.09 | 99 | 1012.0 |
| 20260508114850 | 41 | 11 | 0.0 | 1.0 | 0.00 | 0.09 | 0.09 | 99 | 1011.8 |
| 20260508114347 | 41 | 21 | 0.0 | 0.0 | 0.00 | 0.09 | 0.09 | 99 | 1011.9 |
| 20260508113843 | 40 | 9 | 0.0 | 0.0 | 0.00 | 0.09 | 0.09 | 99 | 1012.0 |
| 20260508113342 | 41 | 22 | 0.0 | 1.0 | 0.00 | 0.09 | 0.09 | 99 | 1012.1 |
| 20260508112838 | 39 | 14 | 0.0 | 0.0 | 0.00 | 0.09 | 0.09 | 99 | 1012.1 |
| 20260508112335 | 39 | 11 | 0.0 | 0.0 | 0.00 | 0.09 | 0.09 | 99 | 1011.9 |
| 20260508111831 | 37 | 358 | 0.0 | 0.0 | 0.00 | 0.09 | 0.09 | 99 | 1012.0 |
| 20260508111329 | 38 | 4 | 1.0 | 1.0 | 0.00 | 0.09 | 0.09 | 99 | 1011.6 |
| 20260508110826 | 37 | 1 | 1.0 | 1.0 | 0.00 | 0.09 | 0.09 | 99 | 1011.8 |
| 20260508110324 | 36 | 1 | 0.0 | 0.0 | 0.00 | 0.09 | 0.09 | 99 | 1011.8 |
| 20260508105823 | 36 | 352 | 0.0 | 0.0 | 0.00 | 0.09 | 0.09 | 99 | 1011.6 |
| 20260508105320 | 35 | 355 | 1.0 | 1.0 | 0.00 | 0.09 | 0.09 | 99 | 1011.8 |
| 20260508104817 | 35 | 7 | 0.0 | 0.0 | 0.00 | 0.09 | 0.09 | 99 | 1011.8 |
| 20260508104314 | 35 | 357 | 0.0 | 0.0 | 0.00 | 0.09 | 0.09 | 99 | 1011.7 |
| 20260508103811 | 35 | 354 | 0.0 | 0.0 | 0.00 | 0.09 | 0.09 | 99 | 1011.7 |
| 20260508103308 | 35 | 7 | 0.0 | 0.0 | 0.00 | 0.09 | 0.09 | 99 | 1011.3 |
| 20260508102806 | 34 | 10 | 0.0 | 0.0 | 0.00 | 0.09 | 0.09 | 99 | 1011.6 |
| 20260508102306 | 34 | 5 | 0.0 | 0.0 | 0.00 | 0.09 | 0.09 | 99 | 1011.6 |
| 20260508101801 | 34 | 22 | 1.0 | 1.0 | 0.00 | 0.09 | 0.09 | 99 | 1011.5 |
| 20260508101258 | 34 | 0 | 0.0 | 0.0 | 0.00 | 0.09 | 0.09 | 99 | 1011.5 |
| 20260508100755 | 34 | 0 | 0.0 | 1.0 | 0.00 | 0.09 | 0.09 | 99 | 1011.5 |
| 20260508100254 | 34 | 357 | 0.0 | 0.0 | 0.00 | 0.09 | 0.09 | 99 | 1011.5 |
| 20260508095749 | 34 | 358 | 0.0 | 0.0 | 0.00 | 0.09 | 0.09 | 99 | 1011.4 |
| 20260508095247 | 34 | 3 | 0.0 | 0.0 | 0.00 | 0.09 | 0.09 | 99 | 1011.4 |
| 20260508094743 | 34 | 5 | 1.0 | 1.0 | 0.00 | 0.09 | 0.09 | 99 | 1011.3 |
| 20260508094241 | 34 | 4 | 0.0 | 0.0 | 0.00 | 0.09 | 0.09 | 99 | 1011.3 |
| 20260508093738 | 34 | 4 | 1.0 | 1.0 | 0.00 | 0.09 | 0.09 | 99 | 1011.3 |
| 20260508093235 | 34 | 9 | 0.0 | 1.0 | 0.00 | 0.09 | 0.09 | 99 | 1011.4 |
| 20260508092732 | 34 | 3 | 0.0 | 0.0 | 0.00 | 0.09 | 0.09 | 99 | 1011.3 |
| 20260508092230 | 34 | 18 | 1.0 | 1.0 | 0.00 | 0.09 | 0.09 | 99 | 1011.3 |
| 20260508091728 | 35 | 2 | 1.0 | 2.0 | 0.00 | 0.09 | 0.09 | 99 | 1011.4 |
| 20260508091225 | 35 | 0 | 0.0 | 0.0 | 0.00 | 0.09 | 0.09 | 99 | 1011.3 |
| 20260508090723 | 35 | 357 | 0.0 | 0.0 | 0.00 | 0.09 | 0.09 | 99 | 1011.2 |
| 20260508090220 | 35 | 351 | 0.0 | 1.0 | 0.00 | 0.09 | 0.09 | 99 | 1011.4 |
| 20260508085716 | 36 | 347 | 0.0 | 0.0 | 0.00 | 0.09 | 0.09 | 99 | 1011.3 |
| 20260508085213 | 36 | 351 | 0.0 | 1.0 | 0.00 | 0.09 | 0.09 | 99 | 1011.1 |
| 20260508084709 | 37 | 353 | 0.0 | 0.0 | 0.00 | 0.09 | 0.09 | 99 | 1011.2 |
| 20260508084207 | 37 | 335 | 1.0 | 1.0 | 0.00 | 0.09 | 0.09 | 99 | 1011.0 |
| 20260508083704 | 36 | 306 | 1.0 | 2.0 | 0.00 | 0.09 | 0.09 | 99 | 1010.9 |
| 20260508083201 | 37 | 350 | 0.0 | 0.0 | 0.00 | 0.09 | 0.09 | 99 | 1010.8 |
| 20260508082656 | 37 | 359 | 0.0 | 1.0 | 0.00 | 0.09 | 0.09 | 99 | 1010.8 |
| 20260508082153 | 37 | 257 | 1.0 | 2.0 | 0.00 | 0.09 | 0.09 | 99 | 1011.1 |
| 20260508081651 | 37 | 331 | 1.0 | 1.0 | 0.00 | 0.09 | 0.09 | 99 | 1010.9 |
| 20260508081147 | 37 | 339 | 1.0 | 1.0 | 0.07 | 0.09 | 0.09 | 99 | 1010.8 |
| 20260508080645 | 37 | 345 | 0.0 | 0.0 | 0.07 | 0.09 | 0.09 | 99 | 1011.2 |
| 20260508080143 | 36 | 332 | 1.0 | 1.0 | 0.00 | 0.08 | 0.08 | 99 | 1010.8 |
| 20260508075639 | 36 | 356 | 0.0 | 0.0 | 0.00 | 0.08 | 0.08 | 99 | 1011.1 |
| 20260508075136 | 36 | 17 | 1.0 | 1.0 | 0.00 | 0.08 | 0.08 | 99 | 1011.0 |
| 20260508074634 | 37 | 1 | 1.0 | 1.0 | 0.00 | 0.08 | 0.08 | 99 | 1011.0 |
| 20260508074130 | 37 | 2 | 0.0 | 0.0 | 0.00 | 0.08 | 0.08 | 99 | 1011.0 |
| 20260508073627 | 37 | 32 | 1.0 | 1.0 | 0.00 | 0.08 | 0.08 | 99 | 1011.0 |
| 20260508073125 | 37 | 4 | 0.0 | 0.0 | 0.00 | 0.08 | 0.08 | 99 | 1011.0 |
| 20260508072615 | 37 | 355 | 1.0 | 1.0 | 0.00 | 0.08 | 0.08 | 99 | 1010.8 |
| 20260508072112 | 37 | 11 | 0.0 | 0.0 | 0.00 | 0.08 | 0.08 | 99 | 1010.8 |
| 20260508071610 | 37 | 1 | 0.0 | 0.0 | 0.00 | 0.08 | 0.08 | 99 | 1011.0 |
| 20260508071108 | 38 | 348 | 0.0 | 1.0 | 0.00 | 0.08 | 0.08 | 99 | 1011.0 |
| 20260508070605 | 38 | 345 | 1.0 | 1.0 | 0.00 | 0.08 | 0.08 | 99 | 1010.9 |
| 20260508070104 | 38 | 347 | 0.0 | 0.0 | 0.00 | 0.08 | 0.08 | 99 | 1010.8 |
| 20260508065601 | 38 | 333 | 1.0 | 1.0 | 0.00 | 0.08 | 0.08 | 99 | 1011.1 |
| 20260508065059 | 38 | 351 | 0.0 | 0.0 | 0.00 | 0.08 | 0.08 | 99 | 1010.9 |
| 20260508064556 | 38 | 348 | 0.0 | 0.0 | 0.00 | 0.08 | 0.08 | 99 | 1010.8 |
| 20260508064054 | 38 | 356 | 0.0 | 0.0 | 0.00 | 0.08 | 0.08 | 99 | 1010.9 |
| 20260508063551 | 37 | 358 | 0.0 | 0.0 | 0.00 | 0.08 | 0.08 | 99 | 1011.1 |
| 20260508063049 | 38 | 359 | 0.0 | 0.0 | 0.00 | 0.08 | 0.08 | 99 | 1011.0 |
| 20260508062546 | 38 | 1 | 0.0 | 0.0 | 0.00 | 0.08 | 0.08 | 99 | 1011.1 |
| 20260508062043 | 38 | 6 | 1.0 | 1.0 | 0.00 | 0.08 | 0.08 | 99 | 1010.8 |